Location: Alsip
(41.6689°N, 87.7387°W)
Time: 14:50:38
(UTC+00:00)

Cosmos 1190 Rocket - Pass Details

Date: 14 July 2020
Orbit: 756 x 781 km, 74.1° (Epoch: 13 August)

Event Time Altitude Azimuth Distance (km) Brightness Sun altitude
Exits shadow 07:07:24 44° 127° (SE) 1,040 4.5 -24.7°
Maximum altitude 07:08:05 47° 104° (ESE) 1,002 4.5 -24.6°
Drops below altitude 10° 07:13:05 10° 31° (NNE) 2,313 7.5 -24.3°
Sets 07:15:33 0° 26° (NNE) 3,247 8.7 -24.2°
